Regional Weather Roundup
Issued by NWS

Home | Current Version | Previous Version | Graphics & Text | Print | Product List | Glossary On
Versions: 1 2 3 4 5 6 7 8 9 10 11 12 13 14 15 16 17 18 19 20 21 22 23 24 25 26 27 28 29 30 31 32 33 34 35 36 37 38 39 40 41 42 43 44 45 46 47 48 49 50
000
ASUS43 KOAX 220010
RWRNE

WEATHER ROUNDUP FOR NEBRASKA
NATIONAL WEATHER SERVICE OMAHA NE
700 PM CDT TUE OCT 21 2014

NOTES: SATELLITE DATA IS BEING USED TO AUGMENT CLOUD COVER ABOVE
       12000 FEET.
       "FAIR" INDICATES FEW OR NO CLOUDS BELOW 12,000 FEET WITH NO
       SIGNIFICANT WEATHER AND/OR OBSTRUCTIONS TO VISIBILITY.

  * THESE STATIONS DO NOT REPORT WEATHER SUCH AS RAIN...SNOW OR FOG.

NEZ001>004-019>022-054>056-220100-
NEBRASKA PANHANDLE

CITY           SKY/WX    TMP DP  RH WIND       PRES   REMARKS
SCOTTSBLUFF    MOCLDY    67  44  43 W10       29.85S
6HR MIN TEMP:  66; 6HR MAX TEMP:  79;

ALLIANCE       PTCLDY    61  46  57 S6        29.84F
6HR MIN TEMP:  61; 6HR MAX TEMP:  75;

CHADRON        PTCLDY    71  46  40 S13       29.78R
6HR MIN TEMP:  71; 6HR MAX TEMP:  84;

KIMBALL        PTCLDY    63  37  39 S8        29.88S
SIDNEY         CLEAR     67  45  45 S7        29.87F
6HR MIN TEMP:  67; 6HR MAX TEMP:  78;

$$

NEZ057>060-069>072-079>082-220100-
SOUTHWEST NEBRASKA

CITY           SKY/WX    TMP DP  RH WIND       PRES   REMARKS
NORTH PLATTE   CLEAR     72  53  51 SE12      29.88F
6HR MIN TEMP:  71; 6HR MAX TEMP:  78;

IMPERIAL       CLEAR     73  49  42 SE14      29.87F
6HR MIN TEMP:  71; 6HR MAX TEMP:  79;

LEXINGTON      CLEAR     71  57  61 SE12      29.93S
MCCOOK         CLEAR     73  54  51 SE12      29.91F
6HR MIN TEMP:  73; 6HR MAX TEMP:  81;

OGALLALA       CLEAR     74  52  46 S13       29.86S
$$

NEZ005>010-023>029-035>040-094-220100-
NORTH CENTRAL NEBRASKA

CITY           SKY/WX    TMP DP  RH WIND       PRES   REMARKS
VALENTINE      MOCLDY    71  52  50 SE9       29.84F
6HR MIN TEMP:  71; 6HR MAX TEMP:  79;

AINSWORTH      PTCLDY    68  52  55 S12       29.87F
BROKEN BOW     CLEAR     69  53  56 SE9       29.93R
6HR MIN TEMP:  69; 6HR MAX TEMP:  77; 6HR PCP: TRACE;

O`NEILL        CLEAR     69  37  30 SE13G18   29.93S
ORD            CLEAR     69  50  50 SE10      29.92F
6HR MIN TEMP:  69; 6HR MAX TEMP:  76;

THEDFORD       CLEAR     72  55  56 SE12      29.88F
$$

NEZ041-046>049-061>064-073>077-083>087-220100-
SOUTH CENTRAL NEBRASKA

CITY           SKY/WX    TMP DP  RH WIND       PRES   REMARKS
GRAND ISLAND   CLEAR     69  51  52 SE8       29.97S
6HR MIN TEMP:  69; 6HR MAX TEMP:  78;

AURORA         CLEAR     66  42  42 SE7       29.99R
HASTINGS       CLEAR     69  50  50 SE12      29.97S
6HR MIN TEMP:  69; 6HR MAX TEMP:  76;

HEBRON         CLEAR     65  45  47 SE6       30.00S
HOLDREGE       CLEAR     69  55  59 S14       29.94S
KEARNEY *      CLEAR     68  52  56 SE12      29.96S
YORK           CLEAR     64  43  45 SE7       30.00R
$$

NEZ011>018-030>034-042>045-220100-
NORTHEAST NEBRASKA

CITY           SKY/WX    TMP DP  RH WIND       PRES   REMARKS
NORFOLK        CLEAR     67  43  41 SE12      29.98R
6HR MIN TEMP:  67; 6HR MAX TEMP:  78;

ALBION         CLEAR     66  37  33 SE7       29.97S
BLAIR          CLEAR     65  40  40 SE8       30.03S
COLUMBUS *     CLEAR     66  41  39 SE8       30.01R
FREMONT        CLEAR     66  40  38 SE7       30.02R
TEKAMAH        CLEAR     62  41  46 SE9       30.02S
6HR MIN TEMP:  62; 6HR MAX TEMP:  77;

WAYNE          CLEAR     66  44  45 SE10      30.00R
$$

NEZ050>053-065>068-078-088>093-220100-
SOUTHEAST NEBRASKA

CITY           SKY/WX    TMP DP  RH WIND       PRES   REMARKS
LINCOLN        CLEAR     66  43  43 SE9       30.02R
6HR MIN TEMP:  66; 6HR MAX TEMP:  77; 6HR PCP: TRACE;

OMAHA EPPLEY   CLEAR     63  40  42 SE10      30.03S
6HR MIN TEMP:  63; 6HR MAX TEMP:  74;

BEATRICE       CLEAR     67  42  40 SE7       30.01S
FALLS CITY     CLEAR     62  38  40 SE6       30.04S
6HR MIN TEMP:  62; 6HR MAX TEMP:  75;

NEBRASKA CITY  CLEAR     65  30  27 SE7       30.04S
PLATTSMOUTH    CLEAR     64  34  33 SE5       30.04S
$$

NEZ044-045-051>053-067-220100-
OMAHA AREA

CITY           SKY/WX    TMP DP  RH WIND       PRES   REMARKS
OMAHA EPPLEY   CLEAR     63  40  42 SE10      30.03S
6HR MIN TEMP:  63; 6HR MAX TEMP:  74;

BLAIR          CLEAR     65  40  40 SE8       30.03S
FREMONT        CLEAR     66  40  38 SE7       30.02R
MILLARD        CLEAR     65  41  42 SE3       30.03R
OFFUTT AFB     CLEAR     59  42  52 E7        30.03S
PLATTSMOUTH    CLEAR     64  34  33 SE5       30.04S
WAHOO          FAIR      62  40  44 SE9       30.01S
$$



USA.gov is the U.S. government's official web portal to all federal, state and local government web resources and services.